TimeCST,TemperatureF,Dew PointF,Humidity,Sea Level PressureIn,VisibilityMPH,Wind Direction,Wind SpeedMPH,Gust SpeedMPH,PrecipitationIn,Events,Conditions,WindDirDegrees,DateUTC
12:46 AM,23.0,17.6,80,30.00,10.0,SSE,17.3,23.0,N/A,,Scattered Clouds,150,2013-02-09 06:46:00
12:53 AM,23.0,18.0,81,30.04,10.0,SSE,16.1,21.9,N/A,,Partly Cloudy,150,2013-02-09 06:53:00
1:53 AM,23.0,18.0,81,30.02,10.0,SSE,16.1,-,N/A,,Clear,150,2013-02-09 07:53:00
2:11 AM,24.8,17.6,74,29.97,10.0,SSE,16.1,-,N/A,,Mostly Cloudy,150,2013-02-09 08:11:00
2:53 AM,24.1,19.0,81,30.01,10.0,SSE,16.1,24.2,N/A,,Overcast,160,2013-02-09 08:53:00
3:53 AM,25.0,19.9,81,29.99,9.0,SSE,17.3,25.3,N/A,,Overcast,160,2013-02-09 09:53:00
4:53 AM,26.1,19.9,78,29.98,7.0,SSE,17.3,23.0,N/A,,Overcast,160,2013-02-09 10:53:00
5:53 AM,26.1,21.0,81,29.99,6.0,SSE,16.1,-,N/A,,Haze,160,2013-02-09 11:53:00
6:13 AM,26.6,21.2,80,29.93,6.0,South,16.1,-,N/A,,Haze,170,2013-02-09 12:13:00
6:53 AM,27.0,21.9,81,29.97,6.0,SSE,16.1,25.3,N/A,,Haze,160,2013-02-09 12:53:00
7:11 AM,26.6,21.2,80,29.93,6.0,South,15.0,-,N/A,,Haze,170,2013-02-09 13:11:00
7:53 AM,28.0,23.0,81,29.98,5.0,South,15.0,-,N/A,,Haze,170,2013-02-09 13:53:00
8:50 AM,28.4,23.0,80,29.93,3.0,SSE,13.8,-,N/A,,Haze,160,2013-02-09 14:50:00
8:53 AM,28.0,23.0,81,29.97,3.0,South,13.8,-,N/A,,Haze,170,2013-02-09 14:53:00
9:23 AM,28.4,24.8,86,29.92,3.0,South,12.7,-,N/A,,Overcast,170,2013-02-09 15:23:00
9:53 AM,28.0,24.1,85,29.97,4.0,South,10.4,-,N/A,,Overcast,180,2013-02-09 15:53:00
10:53 AM,28.9,24.1,82,29.97,4.0,South,10.4,-,N/A,,Haze,190,2013-02-09 16:53:00
11:29 AM,28.4,24.8,86,29.93,4.0,South,11.5,-,N/A,,Haze,180,2013-02-09 17:29:00
11:53 AM,28.9,24.1,82,29.96,4.0,South,10.4,-,N/A,,Haze,180,2013-02-09 17:53:00
12:03 PM,28.4,24.8,86,29.92,4.0,South,9.2,-,N/A,,Haze,190,2013-02-09 18:03:00
12:43 PM,30.2,24.8,80,29.90,4.0,South,8.1,-,N/A,,Haze,180,2013-02-09 18:43:00
12:53 PM,30.0,25.0,82,29.95,4.0,South,8.1,-,N/A,,Haze,180,2013-02-09 18:53:00
1:53 PM,30.0,25.0,82,29.93,4.0,SSW,3.5,-,N/A,,Haze,200,2013-02-09 19:53:00
2:24 PM,30.2,24.8,80,29.87,5.0,Calm,Calm,-,N/A,,Haze,0,2013-02-09 20:24:00
2:53 PM,30.9,25.0,79,29.91,5.0,South,3.5,-,N/A,,Haze,190,2013-02-09 20:53:00
3:22 PM,32.0,26.6,80,29.87,5.0,SSE,4.6,-,N/A,,Haze,160,2013-02-09 21:22:00
3:53 PM,32.0,26.1,79,29.91,3.0,SSE,4.6,-,N/A,,Haze,160,2013-02-09 21:53:00
4:51 PM,32.0,26.6,80,29.87,3.0,SSE,5.8,-,N/A,,Haze,150,2013-02-09 22:51:00
4:53 PM,32.0,27.0,82,29.91,3.0,SSE,6.9,-,N/A,,Haze,150,2013-02-09 22:53:00
5:27 PM,32.0,26.6,80,29.87,2.5,SE,6.9,-,N/A,,Haze,140,2013-02-09 23:27:00
5:53 PM,30.9,27.0,85,29.91,3.0,SE,5.8,-,N/A,,Overcast,130,2013-02-09 23:53:00
6:53 PM,30.9,27.0,85,29.91,3.0,ESE,6.9,-,N/A,,Overcast,120,2013-02-10 00:53:00
7:27 PM,30.2,28.4,93,29.87,2.5,SE,8.1,-,N/A,,Overcast,130,2013-02-10 01:27:00
7:53 PM,30.9,28.0,89,29.91,1.8,ESE,5.8,-,N/A,,Overcast,120,2013-02-10 01:53:00
8:53 PM,30.9,28.0,89,29.91,1.8,SE,6.9,-,N/A,,Overcast,130,2013-02-10 02:53:00
9:00 PM,30.2,28.4,93,29.87,2.0,SE,8.1,-,N/A,,Overcast,130,2013-02-10 03:00:00
9:21 PM,30.2,28.4,93,29.87,3.0,ESE,8.1,-,N/A,,Overcast,120,2013-02-10 03:21:00
9:49 PM,30.2,28.4,93,29.87,3.0,SE,6.9,-,N/A,,Overcast,130,2013-02-10 03:49:00
9:53 PM,30.9,28.0,89,29.90,3.0,ESE,6.9,-,N/A,,Overcast,120,2013-02-10 03:53:00
10:29 PM,30.2,26.6,86,29.86,4.0,ESE,6.9,-,N/A,,Overcast,110,2013-02-10 04:29:00
10:53 PM,30.9,27.0,85,29.89,5.0,East,6.9,-,N/A,,Overcast,80,2013-02-10 04:53:00
11:53 PM,30.9,27.0,85,29.89,6.0,East,6.9,-,N/A,,Overcast,90,2013-02-10 05:53:00